Regional Weather Roundup
Issued by NWS

Home | Current Version | Previous Version | Graphics & Text | Print | Product List | Glossary On
Versions: 1 2 3 4 5 6 7 8 9 10 11 12 13 14 15 16 17 18 19 20 21 22 23 24 25 26 27 28 29 30 31 32 33 34 35 36 37 38 39 40 41 42 43 44 45 46 47 48 49 50
000
ASUS45 KTFX 190904
RWRMT
MONTANA HOURLY WEATHER ROUNDUP
NATIONAL WEATHER SERVICE GREAT FALLS MT
204 AM MST FRI DEC 19 2014

NOTE: "FAIR" INDICATES FEW OR NO CLOUDS BELOW 12000 FEET WITH NO
SIGNIFICANT WEATHER AND/OR OBSTRUCTIONS TO VISIBILITY.

* THESE STATIONS ARE NOT UNDER NWS QUALITY CONTROL. THEY DO NOT
   REPORT WEATHER SUCH AS PRECIPITATION OR FOG.

MTZ001>007-043-191000-
WEST OF THE DIVIDE
CITY           SKY/WX    TMP DP  RH WIND       PRES   REMARKS
KALISPELL      CLOUDY    30  30 100 CALM      29.96S
MISSOULA       MOCLDY    30  28  92 CALM      30.01S
BUTTE          PTCLDY    14  10  84 CALM      29.99S
MULLAN PASS    FOG       30  27  89 N/A       29.89F
* ANACONDA     PTCLDY    27  21  78 N/A        N/A
* ESSEX        N/A       29  29 100 N/A        N/A
* LINCOLN      N/A       32  28  85 S6         N/A   WCI  26
* LOOKOUT PASS N/A       32  32 100 NE2        N/A
* POLSON       N/A       32  31  96 N/A        N/A
* RONAN APT    CLOUDY    32  30  92 N/A        N/A
* SEELEY LAKE  N/A       26  25  96 E1         N/A
* THOMP F APT  MOCLDY    25  23  92 N/A        N/A
$$

MTZ008-052>055-191000-
SOUTHWEST MONTANA
CITY           SKY/WX    TMP DP  RH WIND       PRES   REMARKS
BOZEMAN        CLOUDY    27  23  85 E3        30.00R
DILLON         CLOUDY    28  21  75 S9        30.00S WCI  19
* W YELLOWSTON PTCLDY    25  23  92 SW4G9      N/A
* THREE FORKS  PTCLDY    32  32 100 N/A        N/A
* BOULDER HILL N/A       26  16  66 SW7        N/A   WCI  18
* MONIDA PASS  N/A       23  23 100 SE14G20    N/A   WCI  10
* RAYNOLDS PAS N/A       25   9  50 S8         N/A   WCI  16
* WHITEHALL    N/A       31  21  66 S4G16      N/A
* WISE RIVER   N/A       22  19  88 E4         N/A
$$

MTZ009>010-012-014-046-048-049-054-191000-
EAST SLOPES AND CENTRAL MONTANA
CITY           SKY/WX    TMP DP  RH WIND       PRES   REMARKS
CUT BANK       CLEAR     32  23  69 W13       29.85F WCI  22
GREAT FALLS    CLEAR     30  25  82 SW13      29.88F WCI  20
HELENA         MOCLDY    25  21  85 CALM      29.97F
* DEARBORN     N/A       37  25  62 S9         N/A   WCI  30
* EAST GLACIER N/A       35  24  64 W20G26     N/A   WCI  24
* MONARCH      N/A       32  16  52 SW12G19    N/A   WCI  23
* PENDROY      N/A       29  18  63 NW6        N/A   WCI  23
* ROGERS PASS  N/A       30  26  85 SE12G19    N/A   WCI  20
* SWEET GRASS  N/A       26  22  85 SW12       N/A   WCI  15
$$

MTZ011-013-016-021-035-040-045-047-050-051-191000-
NORTH CENTRAL MONTANA
CITY           SKY/WX    TMP DP  RH WIND       PRES   REMARKS
HAVRE          PTCLDY    25  21  85 W3        29.89S
LEWISTOWN      MOCLDY    32  21  64 SW13      29.91S WCI  22
* N BAR RANCH  FAIR      30  21  69 W6        29.92S WCI  24
* CHESTER      N/A       17  14  88 NE1        N/A
* DENTON       N/A       31  22  69 S8         N/A   WCI  24
* GEYSER       N/A       34  21  59 SW14       N/A   WCI  24
* JUDITH GAP   N/A       32  21  64 S2         N/A
* LOMA         N/A       29  24  82 W2         N/A
$$

MTZ017>020-022>027-061-062-191000-
NORTHEAST MONTANA
CITY           SKY/WX    TMP DP  RH WIND       PRES   REMARKS
GLASGOW        FOG       19  16  88 E5        29.91S VSB M1/4 WCI  12
GLENDIVE       MOCLDY    28  25  89 S5        29.93R WCI  22
JORDAN         CLEAR     27  25  92 W8        29.92R WCI  19
SIDNEY         MOCLDY    23  19  85 CALM      29.94R
WOLF POINT     MOCLDY    21  18  88 CALM      29.93S
* BEAVER HILL  N/A       32  25  75 SW15G21    N/A   WCI  22
* CIRCLE       N/A       31  28  89 N/A        N/A
* LINDSAY DVD  N/A       35  27  73 W14        N/A   WCI  26
* NAVAJO       N/A       17  15  92 N/A        N/A
* SACO         N/A       14  12  92 E1         N/A
$$

MTZ028>042-056>058-191000-
SOUTHCENTRAL AND SOUTHEAST MONTANA
CITY           SKY/WX    TMP DP  RH WIND       PRES   REMARKS
BAKER          PTCLDY    30  23  75 SW14      29.93S WCI  19
BILLINGS       PTCLDY    32  19  59 W21G28    29.95F WCI  20
LIVINGSTON     CLOUDY    39  21  48 W20G30    29.95R WCI  29
MILES CITY     PTCLDY    25  21  85 S5        29.95S WCI  19
* LAUREL APT   PTCLDY    30  12  47 SW11G17    N/A   WCI  21
* ROUNDUP APT  PTCLDY    32  19  59 N/A        N/A
* HYSHAM       N/A       30  17  58 W4G11      N/A
* LAME DEER    N/A       34  16  48 W7         N/A   WCI  28
* REED POINT   N/A       24  21  88 E3         N/A
* ROSCOE HILL  N/A       35   6  29 SW6G12     N/A   WCI  30
$$

REGIONAL REPORTS...DAKOTAS
CITY           SKY/WX    TMP DP  RH WIND       PRES   REMARKS
WILLISTON      FOG       25  25 100 CALM      29.92S VSB M1/4
DICKINSON      CLOUDY    30  25  82 SW9       29.89S WCI  22
BEACH          CLOUDY    32  27  82 SW12      29.92R WCI  23
CROSBY         FOG       27  27 100 SW6       29.92S WCI  20
WATFORD CITY   FOG       16  16 100 CALM      29.90S VSB 1
BISMARCK       FOG       18  16  92 SE5       29.98S WCI  11
GRAND FORKS    CLOUDY    21  18  88 S14       30.11S WCI   8
FARGO          FOG       23  19  85 SE14      30.14S WCI  10
BUFFALO SD     MOCLDY    28  21  75 W10       29.88S WCI  19
RAPID CITY     CLEAR     25  16  69 NW3       29.99R
$$

REGIONAL REPORTS...WYOMING/IDAHO/WASHINGTON
CITY           SKY/WX    TMP DP  RH WIND       PRES   REMARKS
GILLETTE       PTCLDY    25  12  58 CALM      29.98S
SHERIDAN       PTCLDY    23  12  63 SW7       29.96F WCI  15
CODY           PTCLDY    36  18  48 CALM      29.99S
YELLOWSTONE LA MOCLDY    23  19  85 VRB3      30.06S
SALMON         CLOUDY    27  21  78 SE3       30.07S
MULLAN PASS    FOG       30  27  89 N/A       29.89S
SAND POINT     FOG       34  34 100 NE3       29.95F VSB 2 1/2
SPOKANE        LGT RAIN  39  36  89 SE7       29.90S WCI  34
$$

REGIONAL REPORTS...SASKATCHEWAN
CITY           SKY/WX    TMP DP  RH WIND       PRES   REMARKS
SWIFT CURRENT  FOG       16  14  92 SW8       29.85S VSB M1/4 WCI   5

$$



USA.gov is the U.S. government's official web portal to all federal, state and local government web resources and services.